Regional Weather Roundup
Issued by NWS Goodland, KS

Home | Current Version | Previous Version | Graphics & Text | Print | Product List | Glossary On
Versions: 1 2 3 4 5 6 7 8 9 10 11 12 13 14 15 16 17 18 19 20 21 22 23 24 25 26 27 28 29 30 31 32 33 34 35 36 37 38 39 40 41 42 43 44 45 46 47 48 49 50
000
ASUS43 KGLD 221508
RWRGLD

GOODLAND FORECAST AREA HOURLY WEATHER ROUNDUP
NATIONAL WEATHER SERVICE GOODLAND KS
900 AM MDT SUN OCT 22 2017

...OFFICIAL OBSERVATIONS...

CITY           SKY/WX    TMP DP  RH WIND       PRES   REMARKS
GOODLAND KS    SUNNY     48  22  35 SW13G22   30.21S
HILL CITY KS   SUNNY     45  31  58 W6        30.20R
IMPERIAL NEB   SUNNY     43  25  49 SW12      30.18S
MCCOOK NEB     SUNNY     42  28  57 W12       30.18S
AKRON CO       CLOUDY    47  14  26 SW16      30.18R
BURLINGTON CO  SUNNY     49  18  29 SW17      30.23R
LIMON CO       CLOUDY    44  13  28 S9        30.24R
$$

...UNOFFICIAL OBSERVATIONS...

CITY           SKY/WX    TMP DP  RH WIND       PRES   REMARKS
COLBY KS       SUNNY     48  30  49 W8        30.23S
LENORA KS        N/A     41  32  70 W7          N/A
NORTON KS      SUNNY     52  27  37 W6        30.18R
SHARON SPRINGS   N/A     50  26  38 SW9G17      N/A
TRIBUNE KS     SUNNY     52  23  32 SW9       30.27R
TRENTON NEB      N/A     41  32  70 W8          N/A
KIT CARSON CO    N/A     46  19  34 MISG        N/A
YUMA CO        FAIR      46  19  34 SW20      30.18S
$$




USA.gov is the U.S. government's official web portal to all federal, state and local government web resources and services.